Time,TemperatureF,DewpointF,PressureIn,WindDirection,WindDirectionDegrees,WindSpeedMPH,WindSpeedGustMPH,Humidity,HourlyPrecipIn,Conditions,Clouds,dailyrainin,SoftwareType,DateUTC
2013-08-26 00:03:00,66.0,64.0,30.17,SSE,157,0.0,1.0,92,0.00,,,0.00,weatherlink.com 1.10,2013-08-26 04:03:00,
2013-08-26 00:18:00,66.7,64.0,30.18,SSE,157,0.0,0.0,90,0.00,,,0.00,weatherlink.com 1.10,2013-08-26 04:18:00,
2013-08-26 00:33:00,66.8,64.0,30.17,SSE,157,0.0,1.0,90,0.00,,,0.00,weatherlink.com 1.10,2013-08-26 04:33:00,
2013-08-26 00:48:00,67.1,64.0,30.17,SSE,164,0.0,3.0,89,0.00,,,0.00,weatherlink.com 1.10,2013-08-26 04:48:00,
2013-08-26 01:03:00,67.4,64.0,30.17,South,172,0.0,1.0,88,0.00,,,0.00,weatherlink.com 1.10,2013-08-26 05:03:00,
2013-08-26 01:52:00,67.0,63.0,30.16,SSE,156,0.0,1.0,88,0.00,,,0.00,weatherlink.com 1.10,2013-08-26 05:52:00,
2013-08-26 02:03:00,66.5,63.0,30.15,SSE,162,0.0,1.0,89,0.00,,,0.00,weatherlink.com 1.10,2013-08-26 06:03:00,
2013-08-26 02:18:00,66.2,63.0,30.14,SSE,163,0.0,1.0,89,0.00,,,0.00,weatherlink.com 1.10,2013-08-26 06:18:00,
2013-08-26 02:33:00,66.4,63.0,30.14,SSE,148,0.0,2.0,89,0.00,,,0.00,weatherlink.com 1.10,2013-08-26 06:33:00,
2013-08-26 02:48:00,66.5,63.0,30.13,SSE,153,0.0,2.0,89,0.00,,,0.00,weatherlink.com 1.10,2013-08-26 06:48:00,
2013-08-26 03:03:00,66.9,63.0,30.13,South,169,0.0,4.0,88,0.00,,,0.00,weatherlink.com 1.10,2013-08-26 07:03:00,
2013-08-26 03:18:00,67.6,64.0,30.12,ESE,121,0.0,4.0,87,0.00,,,0.00,weatherlink.com 1.10,2013-08-26 07:18:00,
2013-08-26 03:33:00,67.9,64.0,30.12,SW,220,1.0,3.0,86,0.00,,,0.00,weatherlink.com 1.10,2013-08-26 07:33:00,
2013-08-26 03:48:00,68.0,63.0,30.12,SSW,209,0.0,5.0,85,0.00,,,0.00,weatherlink.com 1.10,2013-08-26 07:48:00,
2013-08-26 04:04:00,67.8,64.0,30.13,West,271,0.0,1.0,86,0.00,,,0.00,weatherlink.com 1.10,2013-08-26 08:04:00,
2013-08-26 04:19:00,67.1,63.0,30.13,SW,236,3.0,4.0,86,0.00,,,0.00,weatherlink.com 1.10,2013-08-26 08:19:00,
2013-08-26 04:34:00,66.9,63.0,30.13,WSW,238,0.0,3.0,87,0.00,,,0.00,weatherlink.com 1.10,2013-08-26 08:34:00,
2013-08-26 04:49:00,66.3,63.0,30.13,SSW,211,0.0,2.0,88,0.00,,,0.00,weatherlink.com 1.10,2013-08-26 08:49:00,
2013-08-26 05:04:00,65.9,63.0,30.13,WSW,250,0.0,0.0,89,0.00,,,0.00,weatherlink.com 1.10,2013-08-26 09:04:00,
2013-08-26 05:19:00,65.4,63.0,30.14,WSW,250,0.0,1.0,90,0.00,,,0.00,weatherlink.com 1.10,2013-08-26 09:19:00,
2013-08-26 05:34:00,64.8,62.0,30.14,WSW,250,0.0,0.0,90,0.00,,,0.00,weatherlink.com 1.10,2013-08-26 09:34:00,
2013-08-26 05:49:00,64.3,61.0,30.13,WSW,250,0.0,0.0,90,0.00,,,0.00,weatherlink.com 1.10,2013-08-26 09:49:00,
2013-08-26 06:04:00,64.0,61.0,30.13,WSW,241,1.0,2.0,91,0.00,,,0.00,weatherlink.com 1.10,2013-08-26 10:04:00,
2013-08-26 06:19:00,63.9,61.0,30.12,WSW,241,0.0,0.0,91,0.00,,,0.00,weatherlink.com 1.10,2013-08-26 10:19:00,
2013-08-26 06:34:00,63.7,61.0,30.13,WSW,241,0.0,2.0,91,0.00,,,0.00,weatherlink.com 1.10,2013-08-26 10:34:00,
2013-08-26 06:49:00,63.6,61.0,30.14,WSW,241,0.0,0.0,91,0.00,,,0.00,weatherlink.com 1.10,2013-08-26 10:49:00,
2013-08-26 07:04:00,63.4,61.0,30.14,WSW,241,0.0,0.0,91,0.00,,,0.00,weatherlink.com 1.10,2013-08-26 11:04:00,
2013-08-26 07:19:00,63.4,61.0,30.14,SW,219,0.0,1.0,91,0.00,,,0.00,weatherlink.com 1.10,2013-08-26 11:19:00,
2013-08-26 07:34:00,64.3,62.0,30.14,SW,214,0.0,2.0,91,0.00,,,0.00,weatherlink.com 1.10,2013-08-26 11:34:00,
2013-08-26 07:49:00,66.1,62.0,30.14,SW,220,2.0,3.0,87,0.00,,,0.00,weatherlink.com 1.10,2013-08-26 11:49:00,
2013-08-26 08:04:00,68.1,63.0,30.14,West,263,2.0,5.0,83,0.00,,,0.00,weatherlink.com 1.10,2013-08-26 12:04:00,
2013-08-26 08:19:00,69.5,63.0,30.15,WSW,250,0.0,1.0,81,0.00,,,0.00,weatherlink.com 1.10,2013-08-26 12:19:00,
2013-08-26 08:34:00,70.4,64.0,30.15,WSW,250,0.0,1.0,81,0.00,,,0.00,weatherlink.com 1.10,2013-08-26 12:34:00,
2013-08-26 08:49:00,70.8,64.0,30.15,WSW,250,0.0,2.0,80,0.00,,,0.00,weatherlink.com 1.10,2013-08-26 12:49:00,
2013-08-26 09:04:00,71.1,64.0,30.14,WSW,250,0.0,2.0,79,0.00,,,0.00,weatherlink.com 1.10,2013-08-26 13:04:00,
2013-08-26 09:19:00,71.8,65.0,30.14,WSW,244,0.0,4.0,79,0.00,,,0.00,weatherlink.com 1.10,2013-08-26 13:19:00,
2013-08-26 09:34:00,73.0,66.0,30.13,WSW,254,1.0,4.0,79,0.00,,,0.00,weatherlink.com 1.10,2013-08-26 13:34:00,
2013-08-26 09:49:00,74.3,67.0,30.13,NNW,328,0.0,3.0,79,0.00,,,0.00,weatherlink.com 1.10,2013-08-26 13:49:00,
2013-08-26 10:04:00,75.6,69.0,30.13,South,175,0.0,6.0,79,0.00,,,0.00,weatherlink.com 1.10,2013-08-26 14:04:00,
2013-08-26 10:19:00,76.6,69.0,30.13,South,182,1.0,6.0,78,0.00,,,0.00,weatherlink.com 1.10,2013-08-26 14:19:00,
2013-08-26 10:34:00,77.4,70.0,30.13,NW,310,1.0,4.0,78,0.00,,,0.00,weatherlink.com 1.10,2013-08-26 14:34:00,
2013-08-26 10:49:00,77.8,71.0,30.13,SSW,213,4.0,6.0,79,0.00,,,0.00,weatherlink.com 1.10,2013-08-26 14:49:00,
2013-08-26 11:04:00,78.0,71.0,30.13,NW,316,1.0,6.0,79,0.00,,,0.00,weatherlink.com 1.10,2013-08-26 15:04:00,
2013-08-26 11:19:00,78.2,71.0,30.13,WNW,282,0.0,5.0,79,0.00,,,0.00,weatherlink.com 1.10,2013-08-26 15:19:00,
2013-08-26 11:34:00,78.9,72.0,30.13,West,271,0.0,6.0,80,0.00,,,0.00,weatherlink.com 1.10,2013-08-26 15:34:00,
2013-08-26 11:49:00,80.0,73.0,30.13,West,277,1.0,7.0,79,0.00,,,0.00,weatherlink.com 1.10,2013-08-26 15:49:00,
2013-08-26 12:04:00,80.5,73.0,30.12,West,281,2.0,4.0,78,0.00,,,0.00,weatherlink.com 1.10,2013-08-26 16:04:00,
2013-08-26 12:19:00,81.6,74.0,30.12,NW,326,1.0,4.0,78,0.00,,,0.00,weatherlink.com 1.10,2013-08-26 16:19:00,
2013-08-26 12:35:00,82.0,74.0,30.12,WNW,288,1.0,5.0,77,0.00,,,0.00,weatherlink.com 1.10,2013-08-26 16:35:00,
2013-08-26 12:50:00,82.8,73.0,30.11,West,269,0.0,6.0,73,0.00,,,0.00,weatherlink.com 1.10,2013-08-26 16:50:00,
2013-08-26 13:05:00,83.0,73.0,30.10,WNW,288,0.0,7.0,72,0.00,,,0.00,weatherlink.com 1.10,2013-08-26 17:05:00,
2013-08-26 13:20:00,83.4,73.0,30.09,WSW,240,3.0,5.0,71,0.00,,,0.00,weatherlink.com 1.10,2013-08-26 17:20:00,
2013-08-26 13:35:00,83.9,74.0,30.08,West,259,0.0,4.0,72,0.00,,,0.00,weatherlink.com 1.10,2013-08-26 17:35:00,
2013-08-26 13:50:00,84.6,75.0,30.07,WNW,283,0.0,6.0,72,0.00,,,0.00,weatherlink.com 1.10,2013-08-26 17:50:00,
2013-08-26 14:05:00,84.9,73.0,30.07,WNW,288,1.0,6.0,68,0.00,,,0.00,weatherlink.com 1.10,2013-08-26 18:05:00,
2013-08-26 14:20:00,84.8,74.0,30.07,ESE,122,1.0,5.0,69,0.00,,,0.00,weatherlink.com 1.10,2013-08-26 18:20:00,
2013-08-26 14:35:00,84.8,73.0,30.06,SSE,153,0.0,7.0,68,0.00,,,0.00,weatherlink.com 1.10,2013-08-26 18:35:00,
2013-08-26 14:50:00,85.3,74.0,30.06,WNW,297,0.0,7.0,68,0.00,,,0.00,weatherlink.com 1.10,2013-08-26 18:50:00,
2013-08-26 15:05:00,85.0,73.0,30.05,WSW,247,0.0,7.0,67,0.00,,,0.00,weatherlink.com 1.10,2013-08-26 19:05:00,
2013-08-26 15:20:00,85.3,74.0,30.04,NW,319,0.0,4.0,68,0.00,,,0.00,weatherlink.com 1.10,2013-08-26 19:20:00,
2013-08-26 15:35:00,85.8,73.0,30.03,WNW,296,1.0,7.0,65,0.00,,,0.00,weatherlink.com 1.10,2013-08-26 19:35:00,
2013-08-26 15:50:00,86.1,74.0,30.03,WNW,298,5.0,6.0,67,0.00,,,0.00,weatherlink.com 1.10,2013-08-26 19:50:00,
2013-08-26 16:05:00,85.7,73.0,30.02,SSW,205,2.0,8.0,65,0.00,,,0.00,weatherlink.com 1.10,2013-08-26 20:05:00,
2013-08-26 16:20:00,85.3,73.0,30.01,WSW,258,2.0,7.0,67,0.00,,,0.00,weatherlink.com 1.10,2013-08-26 20:20:00,
2013-08-26 16:35:00,84.3,73.0,30.01,West,268,1.0,6.0,68,0.00,,,0.00,weatherlink.com 1.10,2013-08-26 20:35:00,
2013-08-26 16:50:00,84.4,74.0,30.00,SW,234,0.0,6.0,70,0.00,,,0.00,weatherlink.com 1.10,2013-08-26 20:50:00,
2013-08-26 17:05:00,84.0,74.0,30.00,SW,223,3.0,4.0,71,0.00,,,0.00,weatherlink.com 1.10,2013-08-26 21:05:00,
2013-08-26 17:20:00,83.9,74.0,30.00,ESE,115,1.0,5.0,71,0.00,,,0.00,weatherlink.com 1.10,2013-08-26 21:20:00,
2013-08-26 17:35:00,85.4,75.0,30.00,SW,222,2.0,7.0,70,0.00,,,0.00,weatherlink.com 1.10,2013-08-26 21:35:00,
2013-08-26 17:50:00,85.3,74.0,30.01,WNW,296,1.0,8.0,69,0.00,,,0.00,weatherlink.com 1.10,2013-08-26 21:50:00,
2013-08-26 18:05:00,84.6,73.0,30.01,SW,227,2.0,7.0,68,0.00,,,0.00,weatherlink.com 1.10,2013-08-26 22:05:00,
2013-08-26 18:20:00,84.0,73.0,30.01,West,272,1.0,3.0,70,0.00,,,0.00,weatherlink.com 1.10,2013-08-26 22:20:00,
2013-08-26 18:35:00,83.2,73.0,30.01,SSW,200,1.0,3.0,72,0.00,,,0.00,weatherlink.com 1.10,2013-08-26 22:35:00,
2013-08-26 18:50:00,82.4,73.0,30.01,WSW,244,1.0,5.0,74,0.00,,,0.00,weatherlink.com 1.10,2013-08-26 22:50:00,
2013-08-26 19:05:00,82.2,73.0,30.01,SW,223,0.0,2.0,74,0.00,,,0.00,weatherlink.com 1.10,2013-08-26 23:05:00,
2013-08-26 19:20:00,81.9,73.0,30.00,WSW,253,0.0,4.0,74,0.00,,,0.00,weatherlink.com 1.10,2013-08-26 23:20:00,
2013-08-26 19:35:00,81.1,73.0,30.00,SSW,213,0.0,2.0,77,0.00,,,0.00,weatherlink.com 1.10,2013-08-26 23:35:00,
2013-08-26 19:50:00,80.2,73.0,30.01,SSW,213,0.0,3.0,78,0.00,,,0.00,weatherlink.com 1.10,2013-08-26 23:50:00,
2013-08-26 20:05:00,79.3,73.0,30.01,SSW,213,0.0,0.0,80,0.00,,,0.00,weatherlink.com 1.10,2013-08-27 00:05:00,
2013-08-26 20:20:00,78.3,72.0,30.00,SSW,213,0.0,1.0,81,0.00,,,0.00,weatherlink.com 1.10,2013-08-27 00:20:00,
2013-08-26 20:35:00,76.7,72.0,30.00,SSW,213,0.0,1.0,85,0.00,,,0.00,weatherlink.com 1.10,2013-08-27 00:35:00,
2013-08-26 20:50:00,75.7,71.0,30.00,SSW,213,0.0,0.0,86,0.00,,,0.00,weatherlink.com 1.10,2013-08-27 00:50:00,
2013-08-26 21:05:00,74.9,71.0,30.00,SSW,213,0.0,0.0,87,0.00,,,0.00,weatherlink.com 1.10,2013-08-27 01:05:00,
2013-08-26 21:20:00,74.2,71.0,30.00,SSW,213,0.0,0.0,89,0.00,,,0.00,weatherlink.com 1.10,2013-08-27 01:20:00,
2013-08-26 21:35:00,73.5,71.0,30.00,SSW,213,0.0,1.0,90,0.00,,,0.00,weatherlink.com 1.10,2013-08-27 01:35:00,
2013-08-26 21:50:00,72.7,70.0,30.00,SSW,213,0.0,0.0,90,0.00,,,0.00,weatherlink.com 1.10,2013-08-27 01:50:00,
2013-08-26 22:05:00,72.0,69.0,30.00,SSW,213,0.0,0.0,91,0.00,,,0.00,weatherlink.com 1.10,2013-08-27 02:05:00,
2013-08-26 22:20:00,71.5,69.0,30.00,SSW,213,0.0,1.0,93,0.00,,,0.00,weatherlink.com 1.10,2013-08-27 02:20:00,
2013-08-26 22:35:00,71.7,70.0,30.00,SSW,213,0.0,2.0,94,0.00,,,0.00,weatherlink.com 1.10,2013-08-27 02:35:00,
2013-08-26 22:50:00,72.6,71.0,30.00,WSW,238,2.0,3.0,93,0.00,,,0.00,weatherlink.com 1.10,2013-08-27 02:50:00,
2013-08-26 23:05:00,73.0,70.0,30.00,WSW,238,0.0,2.0,91,0.00,,,0.00,weatherlink.com 1.10,2013-08-27 03:05:00,
2013-08-26 23:20:00,73.1,70.0,30.00,WSW,239,0.0,2.0,91,0.00,,,0.00,weatherlink.com 1.10,2013-08-27 03:20:00,
2013-08-26 23:35:00,73.2,70.0,30.00,WSW,239,1.0,2.0,90,0.00,,,0.00,weatherlink.com 1.10,2013-08-27 03:35:00,
2013-08-26 23:50:00,73.5,71.0,29.99,SE,136,0.0,3.0,90,0.00,,,0.00,weatherlink.com 1.10,2013-08-27 03:50:00,